Location: Unspecified
(0.0000°N, 0.0000°E)
Time: 13:10:37
(UTC+00:00)

ISS - Pass Details

Date: 23 April 2019
Orbit: 407 x 410 km, 51.6° (Epoch: 20 May)

Event Time Altitude Azimuth Distance (km) Brightness Sun altitude
Exits shadow 04:16:52 27° 35° (NE) 824 -1.9 -24.8°
Drops below altitude 10° 04:18:29 10° 35° (NE) 1,463 -0.4 -24.4°
Sets 04:20:33 0° 35° (NE) 2,321 0.7 -23.9°
